Weather History for Gustavus, AK

Change the Weather History Date:

Tuesday, November 27, 2012

  Actual Average Record
Temperature  
Mean Temperature 24 °F -  
Max Temperature 28 °F 35 °F 51 °F (2002)
Min Temperature 19 °F 24 °F -15 °F (1985)
Degree Days  
Heating Degree Days 42    
Moisture  
Dew Point 20 °F    
Average Humidity 83    
Maximum Humidity 93    
Minimum Humidity 74    
Precipitation  
Precipitation 0.00 in - - ()
Sea Level Pressure  
Sea Level Pressure 29.99 in    
Wind  
Wind Speed 1 mph (NNW)    
Max Wind Speed 5 mph    
Max Gust Speed -    
Visibility 10 miles    
Events      
Averages and records for this station are not official NWS values.
T = Trace of Precipitation, MM = Missing Value Source: NWS Daily Summary

Daily Weather History Graph

Daily Weather History Graph

Search for Another Location

Airport:

Trip Planner

Search our weather history database for the weather conditions in past years. The results will help you decide how hot, cold, wet, or windy it might be!

Date:

Astronomy

Nov. 27, 2012 Rise Set
Actual Time 8:19 AM AKST 3:21 PM AKST
Civil Twilight 7:29 AM AKST 4:11 PM AKST
Nautical Twilight 6:38 AM AKST 5:02 PM AKST
Astronomical Twilight 5:50 AM AKST 5:50 PM AKST
Moon 3:01 PM AKST (11/27) 7:26 AM AKST (11/27)
Length of Visible Light 8h 41m
Length of Day
7h 02m
Full, 100% of the Moon is Illuminated
Nov 27
Full
Nov 28
Full
Dec 6
Last Quarter
Dec 12
New
Dec 19
First Quarter

Hourly Weather History & Observations

Time (AKST) Temp. Windchill Dew Point Humidity Pressure Visibility Wind Dir Wind Speed Gust Speed Precip Events Conditions
12:16 AM 28.4 °F - 24.8 °F 86% 30.17 in 10.0 mi Calm Calm - N/A   Overcast
12:36 AM 28.4 °F - 23.0 °F 80% 30.16 in 10.0 mi Calm Calm - N/A   Overcast
12:56 AM 28.4 °F - 23.0 °F 80% 30.17 in 10.0 mi Calm Calm - N/A   Overcast
1:16 AM 28.4 °F 24.6 °F 24.8 °F 86% 30.17 in 10.0 mi North 3.5 mph - N/A   Overcast
1:36 AM 28.4 °F 24.6 °F 24.8 °F 86% 30.15 in 10.0 mi North 3.5 mph - N/A   Overcast
1:56 AM 28.4 °F 24.6 °F 24.8 °F 86% 30.15 in 10.0 mi NNW 3.5 mph - N/A   Overcast
2:16 AM 28.4 °F - 23.0 °F 80% 30.14 in 10.0 mi Calm Calm - N/A   Overcast
2:36 AM 28.4 °F - 24.8 °F 86% 30.13 in 10.0 mi Calm Calm - N/A   Overcast
2:56 AM 28.4 °F - 24.8 °F 86% 30.12 in 10.0 mi Calm Calm - N/A   Overcast
3:16 AM 28.4 °F 24.6 °F 24.8 °F 86% 30.11 in 10.0 mi NNW 3.5 mph - N/A   Overcast
3:36 AM 28.4 °F - 24.8 °F 86% 30.11 in 10.0 mi Calm Calm - N/A   Overcast
3:56 AM 28.4 °F 24.6 °F 24.8 °F 86% 30.10 in 10.0 mi NNW 3.5 mph - N/A   Overcast
4:16 AM 28.4 °F - 24.8 °F 86% 30.10 in 10.0 mi Calm Calm - N/A   Overcast
4:36 AM 28.4 °F - 24.8 °F 86% 30.08 in 10.0 mi Calm Calm - N/A   Mostly Cloudy
4:56 AM 28.4 °F 24.6 °F 24.8 °F 86% 30.08 in 10.0 mi NNW 3.5 mph - N/A   Overcast
5:16 AM 26.6 °F - 23.0 °F 86% 30.07 in 10.0 mi Calm Calm - N/A   Overcast
5:36 AM 26.6 °F - 23.0 °F 86% 30.06 in 10.0 mi Calm Calm - N/A   Overcast
5:56 AM 28.4 °F - 23.0 °F 80% 30.05 in 10.0 mi Calm Calm - N/A   Overcast
6:16 AM 26.6 °F - 21.2 °F 80% 30.06 in 10.0 mi Calm Calm - N/A   Overcast
6:36 AM 26.6 °F - 21.2 °F 80% 30.05 in 10.0 mi Calm Calm - N/A   Partly Cloudy
6:56 AM 26.6 °F - 21.2 °F 80% 30.05 in 4.0 mi Calm Calm - N/A   Clear
7:36 AM 23.0 °F 17.0 °F 15.8 °F 74% 30.03 in 10.0 mi NNW 4.6 mph - N/A   Partly Cloudy
7:56 AM 23.0 °F - 17.6 °F 80% 30.04 in 5.0 mi Calm Calm - N/A   Clear
8:16 AM 23.0 °F 18.4 °F 17.6 °F 80% 30.03 in 9.0 mi North 3.5 mph - N/A   Clear
8:36 AM 21.2 °F - 17.6 °F 86% 30.03 in 10.0 mi Calm Calm - N/A   Clear
8:56 AM 21.2 °F 14.9 °F 19.4 °F 93% 30.03 in 10.0 mi NNW 4.6 mph - N/A   Clear
9:16 AM 23.0 °F 18.4 °F 17.6 °F 80% 30.02 in 10.0 mi NNW 3.5 mph - N/A   Clear
9:36 AM 21.2 °F 14.9 °F 17.6 °F 86% 30.02 in 10.0 mi NNW 4.6 mph - N/A   Clear
9:56 AM 24.8 °F 20.5 °F 19.4 °F 80% 30.02 in 10.0 mi North 3.5 mph - N/A   Clear
10:16 AM 24.8 °F 20.5 °F 19.4 °F 80% 30.02 in 10.0 mi NNW 3.5 mph - N/A   Clear
10:36 AM 24.8 °F - 19.4 °F 80% 30.02 in 10.0 mi Calm Calm - N/A   Clear
10:56 AM 24.8 °F 20.5 °F 19.4 °F 80% 30.02 in 10.0 mi NNW 3.5 mph - N/A   Clear
11:16 AM 24.8 °F 19.1 °F 19.4 °F 80% 30.01 in 10.0 mi NNW 4.6 mph - N/A   Clear
11:36 AM 24.8 °F - 21.2 °F 86% 30.00 in 10.0 mi Calm Calm - N/A   Clear
11:56 AM 24.8 °F - 21.2 °F 86% 30.00 in 10.0 mi Calm Calm - N/A   Clear
12:16 PM 26.6 °F - 21.2 °F 80% 29.99 in 10.0 mi Calm Calm - N/A   Clear
12:36 PM 26.6 °F - 21.2 °F 80% 29.98 in 10.0 mi Calm Calm - N/A   Clear
12:56 PM 24.8 °F - 21.2 °F 86% 29.97 in 10.0 mi Calm Calm - N/A   Clear
1:16 PM 24.8 °F - 21.2 °F 86% 29.96 in 10.0 mi Calm Calm - N/A   Clear
1:36 PM 26.6 °F - 21.2 °F 80% 29.96 in 10.0 mi Calm Calm - N/A   Clear
1:56 PM 26.6 °F - 21.2 °F 80% 29.95 in 10.0 mi Calm Calm - N/A   Clear
2:16 PM 26.6 °F 22.6 °F 21.2 °F 80% 29.94 in 10.0 mi NNW 3.5 mph - N/A   Clear
2:36 PM 26.6 °F - 21.2 °F 80% 29.94 in 10.0 mi Calm Calm - N/A   Clear
2:56 PM 26.6 °F - 21.2 °F 80% 29.93 in 10.0 mi Calm Calm - N/A   Clear
3:16 PM 26.6 °F - 21.2 °F 80% 29.94 in 10.0 mi Calm Calm - N/A   Clear
3:36 PM 26.6 °F - 21.2 °F 80% 29.93 in 10.0 mi Calm Calm - N/A   Clear
3:56 PM 24.8 °F - 19.4 °F 80% 29.93 in 10.0 mi Calm Calm - N/A   Clear
4:16 PM 24.8 °F - 21.2 °F 86% 29.93 in 10.0 mi Calm Calm - N/A   Clear
4:36 PM 24.8 °F - 19.4 °F 80% 29.93 in 10.0 mi Calm Calm - N/A   Clear
4:56 PM 24.8 °F - 19.4 °F 80% 29.92 in 10.0 mi Calm Calm - N/A   Clear
5:16 PM 24.8 °F 20.5 °F 19.4 °F 80% 29.92 in 10.0 mi North 3.5 mph - N/A   Clear
5:36 PM 24.8 °F 20.5 °F 19.4 °F 80% 29.91 in 10.0 mi North 3.5 mph - N/A   Clear
5:56 PM 23.0 °F - 19.4 °F 86% 29.91 in 10.0 mi Calm Calm - N/A   Clear
6:16 PM 23.0 °F - 19.4 °F 86% 29.91 in 10.0 mi Calm Calm - N/A   Clear
6:36 PM 23.0 °F - 19.4 °F 86% 29.90 in 10.0 mi Calm Calm - N/A   Clear
6:56 PM 23.0 °F - 19.4 °F 86% 29.90 in 10.0 mi Calm Calm - N/A   Clear
7:16 PM 21.2 °F - 17.6 °F 86% 29.90 in 10.0 mi Calm Calm - N/A   Clear
7:36 PM 23.0 °F - 19.4 °F 86% 29.90 in 10.0 mi Calm Calm - N/A   Clear
7:56 PM 23.0 °F - 17.6 °F 80% 29.90 in 10.0 mi Calm Calm - N/A   Clear
8:16 PM 23.0 °F - 17.6 °F 80% 29.89 in 10.0 mi Calm Calm - N/A   Clear
8:36 PM 21.2 °F - 17.6 °F 86% 29.89 in 10.0 mi Calm Calm - N/A   Clear
8:56 PM 21.2 °F - 17.6 °F 86% 29.89 in 10.0 mi Calm Calm - N/A   Clear
9:16 PM 23.0 °F - 17.6 °F 80% 29.90 in 10.0 mi Calm Calm - N/A   Clear
9:36 PM 21.2 °F - 17.6 °F 86% 29.89 in 10.0 mi Calm Calm - N/A   Clear
9:56 PM 21.2 °F - 15.8 °F 80% 29.89 in 10.0 mi Calm Calm - N/A   Clear
10:16 PM 21.2 °F - 15.8 °F 80% 29.89 in 10.0 mi Calm Calm - N/A   Clear
10:36 PM 21.2 °F - 17.6 °F 86% 29.90 in 10.0 mi Calm Calm - N/A   Clear
10:56 PM 21.2 °F - 17.6 °F 86% 29.90 in 10.0 mi Calm Calm - N/A   Clear
11:16 PM 19.4 °F - 15.8 °F 86% 29.89 in 10.0 mi Calm Calm - N/A   Clear
11:36 PM 19.4 °F - 15.8 °F 86% 29.89 in 10.0 mi Calm Calm - N/A   Clear
11:56 PM 19.4 °F - 15.8 °F 86% 29.89 in 10.0 mi Calm Calm - N/A   Clear